Wind_Speed
6 5 5 5 5 6 6 6 7 8 8 9 10 10 11 11 11 10 10 10 9 8 7 6 5 5 5 4 4 4 3 3 3 2 2 2 2 2 2 1 1 2 2
7 6 6 6 6 7 8 8 8 9 10 10 11 11 11 11 11 11 11 11 10 9 9 8 7 6 5 5 5 4 4 4 4 3 3 3 3 3 3 2 1 1 2
8 7 7 7 7 7 8 9 10 11 11 12 12 12 12 12 12 12 12 12 12 11 10 9 8 8 7 6 6 5 5 5 5 5 4 5 4 4 3 3 2 2 1
9 8 8 8 8 8 9 10 11 12 13 13 14 14 14 14 13 13 13 13 13 12 11 10 10 9 9 8 7 7 7 6 6 6 6 6 5 5 5 4 4 3 3
9 9 9 9 10 10 10 11 12 13 14 14 15 15 15 15 15 15 15 14 14 13 13 12 12 11 11 10 9 8 8 8 8 7 7 7 6 6 6 5 5 5 4
10 10 10 10 11 12 12 12 13 13 14 15 16 17 17 17 17 17 16 15 15 15 14 14 13 13 12 12 11 10 10 9 9 9 9 8 8 8 7 7 6 6 6
10 10 11 12 12 12 13 13 14 15 15 16 17 18 18 18 18 18 18 17 17 16 16 15 15 14 14 13 13 12 11 11 11 10 10 10 10 10 9 9 8 7 7
11 11 12 12 13 13 14 15 15 16 16 17 18 19 19 19 20 20 19 19 18 18 18 17 17 16 16 15 15 14 13 13 12 12 11 11 11 11 11 10 10 9 8
11 12 12 13 13 14 15 16 16 17 17 18 19 19 20 20 20 21 20 20 20 19 19 19 18 18 17 17 17 16 15 14 14 13 13 13 13 12 12 11 11 10 9
12 13 13 14 14 15 15 16 17 18 18 19 20 20 20 21 21 22 22 21 21 21 20 20 20 19 19 19 18 18 17 16 15 15 15 14 14 13 12 12 12 12 12
12 14 15 15 15 16 16 17 18 19 19 20 20 20 21 21 22 22 22 22 22 22 22 22 21 21 20 20 20 19 18 17 17 16 16 15 14 14 13 13 13 13 13
13 15 16 16 17 17 18 18 19 19 20 20 21 21 22 22 22 22 22 23 23 23 23 22 22 21 21 21 21 20 20 19 18 18 17 16 15 14 13 14 14 14 14
16 16 17 17 18 18 18 19 19 20 20 20 21 22 22 22 23 23 23 23 23 24 23 23 23 22 22 22 22 21 21 20 20 19 19 17 16 15 14 15 15 15 15
16 17 18 17 17 18 18 18 19 19 20 20 21 22 23 23 23 24 25 24 24 24 23 23 24 23 22 22 23 23 22 21 21 21 19 18 17 17 16 17 16 16 16
18 18 18 18 18 19 19 19 20 21 21 21 22 22 23 24 24 23 24 24 24 25 25 24 24 24 23 23 23 23 23 23 23 22 21 19 19 17 18 18 17 17 17
18 19 19 19 20 20 21 21 21 22 22 22 22 23 24 25 25 25 24 23 24 24 24 23 23 23 23 23 22 22 22 23 23 23 21 20 20 20 20 19 18 18 18
19 20 20 21 21 21 22 22 23 23 23 24 24 24 25 25 25 25 25 24 23 23 23 23 24 24 23 23 22 22 22 22 23 23 22 22 21 21 20 19 18 18 19
20 21 21 22 22 23 23 23 24 24 24 25 25 25 26 26 26 25 25 24 24 23 23 23 23 24 23 23 23 23 23 22 23 23 23 22 22 22 21 21 20 20 20
21 22 22 22 23 23 24 24 25 25 26 26 27 27 27 26 27 26 25 25 24 25 24 23 23 23 24 24 24 25 24 24 23 23 23 23 23 23 22 22 22 21 21
21 22 22 23 23 23 24 25 25 26 27 27 27 28 28 28 27 28 27 26 25 25 25 25 24 24 25 24 24 25 25 24 24 24 24 24 23 23 22 22 22 21 21
21 22 23 23 23 24 24 25 25 26 27 27 28 28 28 28 28 27 27 26 25 24 24 25 25 24 25 25 25 25 25 25 25 25 24 24 23 23 22 22 22 22 21
23 23 23 23 24 24 24 24 26 26 27 28 28 28 27 27 27 27 27 27 26 25 25 26 26 25 25 25 25 25 25 25 25 25 25 24 24 23 22 22 22 22 22
23 24 24 25 25 24 24 25 26 27 28 28 28 27 27 26 27 27 27 27 27 26 26 26 26 26 26 25 25 25 25 26 25 26 26 26 25 24 23 23 23 23 22
23 24 24 25 25 25 25 25 26 27 27 27 26 26 25 25 25 26 28 28 28 27 27 27 27 27 26 25 25 26 26 26 26 26 26 26 25 25 24 24 24 23 23
24 24 25 25 26 26 26 26 26 26 27 25 25 25 26 25 26 26 26 27 27 27 27 26 27 27 27 27 26 26 26 26 26 26 26 25 25 25 25 25 24 24 24
24 25 26 26 26 26 27 27 27 27 26 25 25 25 25 25 25 25 25 25 25 25 25 25 26 27 27 27 27 26 26 26 25 26 25 25 25 25 24 24 24 25 25
Wind_Direction
333 332 325 313 304 295 287 285 284 281 283 286 289 289 290 290 291 291 292 292 292 292 293 297 299 300 302 301 297 296 304 312 312 303 299 297 296 293 289 308 0 28 37
321 320 314 307 299 295 289 283 280 281 280 281 284 284 286 288 289 289 290 290 290 289 288 291 291 292 292 292 291 293 299 302 301 298 298 297 295 288 290 298 322 355 20
312 313 310 303 300 296 291 284 280 279 277 276 278 279 281 284 284 284 286 286 286 286 286 285 284 285 286 286 287 291 294 295 296 298 301 300 297 292 290 290 294 301 312
307 306 303 302 297 292 290 285 280 278 277 275 275 275 277 278 279 279 281 283 283 283 282 280 279 279 279 279 282 287 290 293 297 298 300 300 299 297 291 287 279 274 277
304 303 301 299 295 291 287 284 280 276 274 274 273 273 273 274 275 275 277 277 278 279 278 276 275 276 276 277 279 283 286 287 294 294 296 295 292 290 287 282 274 265 269
303 301 298 297 294 289 285 282 279 276 274 274 273 271 272 272 272 272 273 273 274 274 273 273 272 272 274 276 278 280 282 285 288 290 289 288 286 285 280 277 275 267 266
298 298 296 296 293 288 285 284 280 276 275 274 273 270 270 269 269 270 270 270 271 270 270 271 270 271 272 274 276 276 278 282 285 287 285 284 280 280 277 276 275 270 265
293 295 293 292 290 286 284 283 280 277 275 274 274 271 269 267 267 267 267 268 269 268 267 268 269 269 271 272 273 275 275 278 282 283 280 278 277 274 272 274 269 269 268
291 292 292 290 288 286 285 283 279 278 277 276 274 272 269 267 267 267 266 265 266 267 265 265 266 267 269 270 272 273 274 276 278 278 276 274 274 273 269 267 267 268 269
288 289 291 290 289 287 286 285 280 278 276 277 276 272 270 269 270 268 265 266 265 264 264 263 263 265 267 268 270 271 272 274 276 277 276 274 273 271 271 265 264 266 267
288 289 289 291 288 286 285 284 282 280 279 278 277 274 272 273 271 269 266 266 266 264 263 262 263 265 267 268 268 269 271 272 273 275 275 274 270 273 270 266 265 265 266
289 290 292 292 292 288 286 282 283 283 281 280 278 276 274 275 273 270 268 268 265 265 265 263 263 265 265 266 268 269 270 271 270 270 273 272 271 275 273 268 267 265 266
287 288 291 294 293 289 286 285 285 282 281 281 280 278 276 276 274 271 271 269 265 266 266 263 262 264 266 267 268 269 269 272 270 269 272 271 271 272 273 271 267 267 265
287 290 289 294 294 293 289 287 286 284 285 283 279 278 278 278 276 274 271 270 267 266 266 263 262 263 265 266 267 266 266 268 269 267 268 270 271 271 272 269 266 267 266
289 293 293 295 295 295 292 292 289 287 286 284 280 277 278 278 277 276 273 271 268 265 265 263 260 261 261 264 265 264 265 267 266 266 266 267 269 270 270 268 268 268 268
288 291 293 294 297 295 295 294 290 287 285 284 283 280 279 280 279 277 273 270 268 265 263 262 259 260 263 265 263 262 264 266 264 264 266 267 266 268 268 267 267 267 266
288 289 291 294 296 296 294 294 292 288 284 283 283 284 283 282 281 278 274 271 270 266 263 260 258 258 262 263 263 263 264 265 264 265 268 267 267 268 268 268 267 267 265
286 288 291 294 296 297 296 293 291 290 287 285 284 283 283 283 282 281 278 272 271 268 264 261 260 259 260 261 261 262 262 265 265 265 267 269 268 268 268 269 268 267 264
288 289 293 294 295 295 295 294 292 290 288 287 285 284 283 282 280 279 278 275 272 267 264 262 261 260 260 260 262 262 264 265 266 267 267 267 267 267 266 266 267 266 263
288 291 294 294 293 293 293 294 293 292 291 289 287 284 283 281 278 277 275 273 270 266 263 261 261 260 260 260 260 261 262 263 264 267 266 266 266 266 266 266 265 264 263
289 290 292 293 293 293 294 295 295 294 292 290 289 285 282 280 279 276 274 272 270 268 265 261 260 260 260 260 260 260 261 261 262 263 263 264 266 266 266 265 263 262 262
291 289 290 293 294 294 295 296 295 294 293 291 288 284 280 278 276 275 274 269 269 270 269 264 261 261 261 260 261 261 261 262 262 262 261 262 264 265 264 264 263 261 260
291 290 290 292 292 293 295 296 294 294 293 290 287 284 280 276 273 274 274 272 269 271 270 266 261 260 261 261 260 261 260 261 262 262 262 262 263 263 263 262 263 263 262
291 290 291 292 293 294 294 295 295 295 294 291 287 285 284 280 276 274 274 272 270 269 268 265 262 261 261 262 262 261 260 260 260 261 262 262 261 261 262 262 263 263 263
291 291 291 293 295 295 295 296 297 298 295 293 289 285 283 281 278 276 275 272 270 268 266 265 263 261 260 261 262 263 262 262 260 260 261 260 260 261 262 262 262 262 262
290 290 291 294 295 295 295 296 296 297 294 292 289 285 283 283 281 279 277 274 271 269 267 267 265 263 262 262 263 264 264 263 261 260 260 259 260 261 261 262 262 262 262
Height
5923 5922 5922 5921 5921 5921 5921 5921 5921 5920 5920 5920 5919 5919 5918 5918 5917 5916 5916 5915 5914 5913 5912 5911 5910 5909 5908 5907 5906 5905 5904 5903 5902 5901 5900 5899 5898 5897 5896 5895 5894 5893 5893
5922 5921 5921 5921 5921 5920 5920 5920 5920 5919 5919 5919 5919 5918 5918 5917 5917 5916 5915 5914 5913 5912 5911 5911 5909 5908 5907 5906 5905 5904 5903 5903 5902 5901 5900 5899 5898 5897 5896 5895 5894 5893 5893
5921 5921 5920 5920 5920 5919 5919 5919 5918 5918 5918 5918 5917 5917 5917 5916 5915 5915 5914 5913 5912 5911 5910 5910 5909 5908 5907 5906 5905 5904 5903 5902 5901 5900 5899 5898 5897 5896 5895 5894 5894 5893 5893
5920 5920 5919 5919 5918 5918 5918 5917 5917 5917 5916 5916 5916 5915 5915 5914 5914 5913 5912 5912 5911 5910 5909 5908 5907 5906 5905 5904 5904 5903 5902 5901 5900 5899 5898 5897 5896 5895 5894 5894 5893 5893 5893
5919 5918 5918 5917 5917 5916 5916 5915 5915 5915 5914 5914 5914 5913 5913 5913 5912 5911 5911 5910 5909 5908 5907 5906 5906 5905 5904 5903 5902 5902 5901 5900 5899 5898 5897 5896 5895 5895 5894 5893 5893 5892 5892
5917 5917 5916 5915 5915 5914 5914 5913 5913 5913 5912 5912 5911 5911 5910 5910 5910 5909 5908 5908 5907 5906 5905 5905 5904 5903 5902 5902 5901 5900 5900 5899 5898 5897 5896 5895 5894 5893 5893 5892 5892 5891 5891
5915 5915 5914 5913 5913 5912 5911 5911 5911 5910 5910 5909 5908 5908 5908 5907 5907 5906 5906 5905 5905 5904 5903 5903 5902 5901 5900 5899 5899 5898 5898 5897 5896 5895 5895 5894 5893 5892 5892 5891 5890 5890 5889
5913 5912 5912 5911 5910 5909 5909 5908 5908 5907 5907 5906 5905 5905 5904 5904 5904 5903 5903 5902 5902 5901 5901 5900 5899 5899 5898 5897 5896 5896 5895 5895 5894 5893 5893 5892 5891 5890 5889 5889 5889 5888 5888
5911 5910 5909 5909 5908 5907 5906 5905 5905 5904 5903 5903 5902 5901 5901 5900 5900 5899 5899 5899 5898 5898 5897 5897 5896 5895 5895 5894 5893 5893 5893 5892 5892 5891 5890 5889 5888 5887 5887 5887 5887 5886 5886
5908 5908 5907 5906 5905 5904 5903 5902 5901 5900 5900 5899 5898 5897 5897 5896 5896 5895 5895 5895 5894 5894 5893 5893 5892 5892 5891 5890 5890 5890 5890 5889 5889 5888 5887 5886 5885 5885 5884 5884 5884 5884 5884
5905 5905 5904 5903 5902 5901 5900 5898 5898 5897 5896 5895 5894 5893 5893 5892 5892 5891 5891 5891 5890 5890 5889 5889 5888 5888 5887 5886 5886 5886 5886 5886 5885 5885 5884 5882 5882 5882 5881 5881 5881 5881 5881
5903 5901 5900 5899 5898 5897 5896 5895 5894 5893 5892 5891 5890 5889 5889 5888 5887 5887 5886 5886 5885 5885 5885 5884 5884 5883 5883 5883 5882 5882 5882 5881 5881 5881 5880 5879 5879 5878 5878 5877 5877 5877 5878
5899 5898 5897 5896 5895 5893 5892 5891 5890 5889 5888 5887 5886 5885 5884 5883 5883 5882 5882 5881 5880 5880 5880 5880 5879 5879 5879 5878 5878 5878 5878 5877 5877 5877 5877 5876 5876 5874 5874 5874 5874 5874 5874
5895 5894 5893 5892 5891 5889 5889 5887 5886 5885 5884 5882 5881 5880 5879 5878 5877 5877 5876 5876 5875 5875 5875 5875 5874 5874 5874 5874 5874 5873 5873 5873 5873 5873 5873 5872 5872 5871 5871 5871 5870 5871 5871
5892 5890 5889 5888 5887 5886 5884 5883 5882 5880 5879 5878 5876 5875 5874 5873 5872 5871 5870 5870 5869 5869 5869 5869 5869 5869 5869 5869 5869 5868 5868 5868 5868 5869 5869 5869 5868 5867 5867 5867 5867 5867 5867
5887 5886 5885 5884 5883 5881 5880 5878 5876 5875 5874 5873 5871 5870 5869 5868 5867 5866 5865 5864 5864 5864 5864 5864 5863 5864 5864 5863 5863 5863 5863 5863 5863 5864 5864 5864 5863 5864 5863 5863 5863 5863 5862
5882 5881 5881 5880 5879 5877 5875 5873 5872 5870 5869 5867 5866 5864 5863 5862 5861 5860 5859 5858 5858 5858 5858 5858 5858 5858 5858 5858 5858 5858 5858 5858 5858 5858 5858 5858 5858 5858 5857 5857 5858 5858 5858
5878 5877 5876 5875 5873 5872 5870 5868 5866 5864 5863 5861 5860 5859 5857 5856 5855 5854 5853 5853 5853 5852 5852 5852 5852 5852 5852 5853 5853 5853 5853 5852 5852 5853 5853 5853 5853 5853 5852 5852 5852 5853 5853
5874 5873 5872 5870 5868 5867 5865 5863 5861 5859 5857 5855 5854 5852 5851 5850 5849 5848 5847 5847 5847 5846 5846 5846 5846 5846 5846 5846 5846 5846 5847 5847 5846 5847 5847 5847 5847 5847 5847 5847 5847 5847 5847
5870 5869 5867 5865 5863 5862 5860 5857 5855 5853 5851 5849 5847 5845 5844 5843 5842 5842 5841 5840 5840 5840 5839 5840 5840 5840 5840 5840 5840 5840 5841 5840 5840 5840 5841 5841 5841 5841 5841 5841 5841 5842 5842
5865 5864 5862 5860 5858 5856 5854 5852 5849 5847 5844 5842 5840 5839 5837 5836 5835 5835 5834 5833 5833 5833 5833 5833 5833 5833 5833 5834 5834 5834 5834 5834 5834 5834 5834 5835 5835 5835 5835 5835 5836 5836 5836
5860 5859 5857 5855 5853 5851 5848 5846 5843 5840 5838 5836 5834 5831 5830 5829 5828 5827 5826 5826 5827 5826 5826 5826 5826 5826 5827 5827 5827 5827 5828 5828 5828 5827 5828 5828 5828 5829 5829 5829 5830 5830 5830
5855 5853 5851 5849 5847 5845 5842 5840 5837 5834 5831 5829 5827 5825 5823 5822 5821 5820 5819 5819 5819 5819 5819 5819 5819 5819 5820 5820 5820 5821 5821 5821 5821 5821 5821 5821 5822 5822 5823 5823 5823 5824 5824
5850 5848 5845 5843 5841 5838 5836 5833 5831 5828 5825 5822 5820 5818 5816 5815 5814 5813 5812 5812 5812 5812 5812 5811 5812 5812 5812 5812 5813 5813 5814 5814 5814 5814 5814 5815 5815 5816 5816 5817 5817 5817 5818
5844 5842 5840 5837 5834 5832 5829 5827 5824 5821 5818 5815 5813 5811 5810 5808 5807 5805 5805 5804 5804 5804 5804 5804 5804 5804 5805 5805 5805 5805 5806 5806 5807 5807 5808 5808 5808 5809 5809 5810 5810 5811 5811
5838 5836 5833 5831 5828 5826 5823 5820 5817 5814 5811 5809 5807 5805 5803 5801 5800 5798 5797 5797 5796 5796 5796 5796 5796 5796 5797 5797 5797 5798 5798 5798 5799 5800 5801 5801 5801 5802 5803 5803 5803 5804 5804